Content
SEND FEEDBACK

Daily
Averages
Monthly
Summary
China

KASHI, CHINA


Home > Asia > China
Elevation: 4236 feet     Latitude: 39 28N     Longitude: 075 58E

WEATHER
 
SELECT A DAY
Number of Records: 112,754;   Date Range: 7/6/03 - 9/28/14
 
SHARE

PRINT THIS DATA

[ ← Previous Day ]
WEATHER ALMANAC - APRIL 27, 2013
[ Next Day → ]
[ °C ]   °F
Weather ElementAverageHighLow
Temperature69.5 °F82 °F (5:00 pm)62 °F (8:00 am)
Dewpoint24.7 °F33 °F (11:00 am)15.8 °F (2:00 pm)
Humidity18.2 %27 % (3:00 am)5 % (5:00 pm)
Barometer29.83 in29.89 in (12:30 am)29.59 in (8:00 pm)
Wind Speed13.2 mph24.6 mph (10:00 pm)
Wind Gust40.3 mph (10:00 pm)
Weather ElementAverage
Visibility8.9 mi
Wind DirectionWNW (276.9 °)

Weather ElementTotal
Precipitation---
Cooling Degree Days7 (Base 65)
Growing Degree Days22 (Base 50)
Averaged from 35 records on April 27, 2013
WEATHER CONDITIONS BREAKOUT
WIND DIRECTION BREAKOUT
WEATHER BY HOUR - APRIL 27, 2013
[ °C ]   °F
Local TimeTemperatureDewpointHumidityBarometerVisibilityWind DirectionWind SpeedGust SpeedPrecipitationEventsConditions
12:30 AM69.8 °F28.4 °F21 %29.89 inNNW (340°)15.7 mphClear
1:00 AM66.2 °F30.2 °F26 %29.89 inNW (310°)20.1 mphClear
1:30 AM66.2 °F30.2 °F26 %29.89 inNW (310°)17.9 mphClear
2:00 AM67.0 °F32.0 °F16 %29.68 in7.0 miWest (270°)11.2 mphScattered Clouds
2:00 AM66.2 °F30.2 °F26 %29.89 inWNW (300°)15.7 mphClear
2:30 AM64.4 °F28.4 °F26 %29.89 inWNW (290°)13.4 mphClear
3:00 AM62.6 °F28.4 °F27 %29.89 inNW (320°)11.2 mphClear
3:30 AM64.4 °F26.6 °F24 %29.89 inNW (310°)15.7 mphClear
4:00 AM64.4 °F26.6 °F24 %29.89 inNW (310°)13.4 mphClear
4:30 AM62.6 °F26.6 °F26 %29.89 inNNW (330°)15.7 mphClear
5:00 AM62.6 °F26.6 °F26 %29.89 inNNW (330°)15.7 mphClear
5:30 AM62.6 °F26.6 °F26 %29.89 in6.2 miNW (320°)15.7 mphMostly Cloudy
6:00 AM62.6 °F26.6 °F26 %29.89 in6.2 miNW (320°)17.9 mphMostly Cloudy
7:00 AM62.6 °F24.8 °F24 %29.86 in6.2 miNW (320°)17.9 mphMostly Cloudy
8:00 AM62.0 °F26.0 °F15 %29.68 in19.0 miWNW (290°)8.9 mphPartly Cloudy
8:00 AM62.6 °F23.0 °F22 %29.86 in6.2 miNW (320°)15.7 mphMostly Cloudy
9:00 AM64.4 °F23.0 °F21 %29.86 in6.2 miNW (320°)20.1 mphScattered Clouds
10:00 AM66.2 °F23.0 °F19 %29.86 in6.2 miNW (320°)11.2 mphScattered Clouds
11:00 AM64.0 °F33.0 °F20 %29.71 in19.0 miNNW (340°)2.2 mphMostly Cloudy
11:00 AM68.0 °F23.0 °F18 %29.89 in6.2 miWest (270°)8.9 mphScattered Clouds
12:00 PM71.6 °F19.4 °F14 %29.89 in6.2 miNNW (340°)8.9 mphPartly Cloudy
1:00 PM75.2 °F17.6 °F11 %29.86 in6.2 miNNW (330°)13.4 mphPartly Cloudy
2:00 PM78.0 °F25.0 °F7 %29.62 in19.0 miWSW (250°)6.7 mphMostly Cloudy
2:00 PM77.0 °F15.8 °F10 %29.83 in6.2 miNNW (340°)11.2 mphPartly Cloudy
3:00 PM78.8 °F15.8 °F9 %29.83 inEast (80°)11.2 mphClear
4:00 PM80.6 °F19.4 °F10 %29.80 in6.2 miESE (120°)6.7 mphPartly Cloudy
5:00 PM80.6 °F19.4 °F10 %29.77 in6.2 miVariable6.7 mphPartly Cloudy
5:00 PM82.0 °F22.0 °F5 %19.0 miESE (110°)6.7 mphMostly Cloudy
6:00 PM80.6 °F19.4 °F10 %29.74 in6.2 miSE (130°)11.2 mphPartly Cloudy
7:00 PM78.8 °F19.4 °F11 %29.77 in6.2 miSE (130°)6.7 mphPartly Cloudy
8:00 PM76.0 °F25.0 °F7 %29.59 in19.0 miNW (320°)6.7 mphMostly Cloudy
8:00 PM75.2 °F23.0 °F14 %29.80 in6.2 miNW (320°)17.9 mphScattered Clouds
9:00 PM71.6 °F26.6 °F19 %29.83 in6.2 miNW (310°)20.1 mphScattered Clouds
10:00 PM68.0 °F26.6 °F21 %29.86 in3.1 miNNW (330°)24.6 mph40.3 mphSand
11:30 PM68.0 °F26.6 °F21 %29.89 inNNW (340°)17.9 mphClear
Hourly data recorded from ZWSH, located miles away from Kashi, China







STORIES FROM OUR PARTNERS